Weather History for Casper, WY

Change the Weather History Date:

Tuesday, April 9, 2013

  Actual Average Record
Temperature  
Mean Temperature 9 °F 41 °F  
Max Temperature 13 °F 55 °F 78 °F (1977)
Min Temperature 4 °F 27 °F 4 °F (1973)
Degree Days  
Heating Degree Days 56 24  
Month to date heating degree days 228 225  
Since 1 July heating degree days 6239 6598  
Cooling Degree Days 0 0  
Month to date cooling degree days 0 0  
Year to date cooling degree days 0 0  
Moisture  
Dew Point 6 °F    
Average Humidity 82    
Maximum Humidity 91    
Minimum Humidity 73    
Precipitation  
Precipitation 0.64 in 0.04 in 0.93 in (1950)
Month to date precipitation 1.07 0.32  
Year to date precipitation 2.69 2.22  
Snow  
Snow 0.00 in 0.40 in - ()
Month to date snowfall 0.0 3.9  
Since 1 July snowfall 43.2 64.2  
Snow Depth -    
Sea Level Pressure  
Sea Level Pressure 30.24 in    
Wind  
Wind Speed 12 mph (NE)    
Max Wind Speed 24 mph    
Max Gust Speed 99 mph    
Visibility 1 miles    
Events Fog , Snow    
T = Trace of Precipitation, MM = Missing Value Source: NWS Daily Summary

Daily Weather History Graph

Daily Weather History Graph

Search for Another Location

Airport:

Trip Planner

Search our weather history database for the weather conditions in past years. The results will help you decide how hot, cold, wet, or windy it might be!

Date:

Astronomy

Apr. 09, 2013 Rise Set
Actual Time 6:33 AM MDT 7:41 PM MDT
Civil Twilight 6:04 AM MDT 8:10 PM MDT
Nautical Twilight 5:29 AM MDT 8:45 PM MDT
Astronomical Twilight 4:53 AM MDT 9:22 PM MDT
Moon 5:58 AM MDT (4/9) 7:20 PM MDT (4/9)
Length of Visible Light 14h 06m
Length of Day
13h 08m
Waning Crescent, 0% of the Moon is Illuminated
Apr 9
Waning Crescent
Apr 10
New
Apr 18
First Quarter
Apr 25
Full
May 2
Last Quarter

Hourly Weather History & Observations

Time (MDT) Temp. Windchill Dew Point Humidity Pressure Visibility Wind Dir Wind Speed Gust Speed Precip Events Conditions
12:04 AM 12.2 °F -5.8 °F 8.6 °F 85% 30.03 in 1.0 mi NNE 19.6 mph 29.9 mph 0.01 in Snow Light Snow
12:45 AM 12.2 °F -4.3 °F 8.6 °F 85% 30.07 in 0.8 mi NNE 16.1 mph 27.6 mph 0.03 in Snow Light Snow
12:53 AM 12.9 °F -2.8 °F 8.1 °F 81% 30.24 in 0.5 mi NNE 15.0 mph - 0.04 in Snow Snow
1:18 AM 12.2 °F -4.3 °F 8.6 °F 85% 30.09 in 1.0 mi NNE 16.1 mph - 0.02 in Snow Light Snow
1:36 AM 12.2 °F -5.8 °F 8.6 °F 85% 30.07 in 0.8 mi NNE 19.6 mph 24.2 mph 0.03 in Snow Light Snow
1:53 AM 12.0 °F -5.6 °F 8.1 °F 84% 30.25 in 0.5 mi NNE 18.4 mph - 0.04 in Fog , Snow Snow
2:20 AM 12.2 °F -5.3 °F 6.8 °F 79% 30.06 in 1.0 mi NNE 18.4 mph - 0.02 in Snow Light Snow
2:32 AM 12.2 °F -4.8 °F 6.8 °F 79% 30.06 in 1.5 mi NNE 17.3 mph - 0.03 in Snow Light Snow
2:44 AM 12.2 °F -5.3 °F 6.8 °F 79% 30.05 in 2.5 mi NNE 18.4 mph 27.6 mph 0.03 in Snow Light Snow
2:53 AM 12.0 °F -5.6 °F 7.0 °F 80% 30.22 in 2.5 mi NNE 18.4 mph - 0.03 in Snow Light Snow
3:31 AM 12.2 °F -4.8 °F 6.8 °F 79% 30.07 in 3.0 mi NNE 17.3 mph - 0.00 in Snow Light Snow
3:38 AM 12.2 °F -4.3 °F 6.8 °F 79% 30.08 in 2.0 mi NNE 16.1 mph - 0.00 in Snow Light Snow
3:48 AM 12.2 °F -1.8 °F 6.8 °F 79% 30.09 in 1.5 mi NNE 11.5 mph - 0.00 in Snow Light Snow
3:53 AM 12.0 °F -5.1 °F 7.0 °F 80% 30.27 in 1.2 mi NNE 17.3 mph 23.0 mph 0.00 in Snow Light Snow
4:14 AM 10.4 °F -4.1 °F 6.8 °F 85% 30.09 in 1.0 mi NNE 11.5 mph - 0.01 in Snow Light Snow
4:22 AM 12.2 °F -1.8 °F 6.8 °F 79% 30.10 in 1.2 mi NE 11.5 mph - 0.01 in Snow Light Snow
4:51 AM 12.2 °F 1.7 °F 6.8 °F 79% 30.13 in 1.5 mi NE 6.9 mph - 0.02 in Snow Light Snow
4:53 AM 12.0 °F 2.7 °F 7.0 °F 80% 30.32 in 1.5 mi NE 5.8 mph - 0.02 in Snow Light Snow
5:14 AM 10.4 °F -6.0 °F 6.8 °F 85% 30.10 in 0.8 mi NE 15.0 mph 19.6 mph 0.01 in Snow Light Snow
5:21 AM 10.4 °F -7.2 °F 6.8 °F 85% 30.09 in 1.0 mi NE 17.3 mph - 0.01 in Snow Light Snow
5:53 AM 10.0 °F -7.1 °F 5.0 °F 80% 30.31 in 1.2 mi NE 16.1 mph - 0.02 in Snow Light Snow
6:29 AM 10.4 °F -8.2 °F 5.0 °F 79% 30.11 in 0.5 mi NE 19.6 mph - 0.01 in Snow Snow
6:53 AM 10.0 °F -8.1 °F 5.0 °F 80% 30.34 in 0.5 mi NE 18.4 mph 25.3 mph 0.03 in Snow Snow
7:00 AM 8.6 °F -10.0 °F 3.2 °F 79% 30.13 in 0.8 mi NNE 18.4 mph 27.6 mph 0.00 in Snow Light Snow
7:10 AM 8.6 °F -10.0 °F 3.2 °F 79% 30.15 in 0.8 mi NE 18.4 mph - 0.00 in Snow Light Snow
7:53 AM 10.0 °F -5.9 °F 5.0 °F 80% 30.39 in 0.8 mi NE 13.8 mph - 0.02 in Snow Light Snow
8:39 AM 10.4 °F -6.0 °F 3.2 °F 73% 30.17 in 0.8 mi NE 15.0 mph - 0.01 in Snow Light Snow
8:53 AM 10.0 °F -7.6 °F 3.9 °F 76% 30.39 in 0.8 mi NE 17.3 mph 26.5 mph 0.01 in Snow Light Snow
9:00 AM 10.4 °F -8.2 °F 3.2 °F 73% 30.17 in 1.2 mi NE 19.6 mph - 0.00 in Snow Light Snow
9:12 AM 10.4 °F -7.7 °F 3.2 °F 73% 30.18 in 2.0 mi NE 18.4 mph - 0.00 in Snow Light Snow
9:29 AM 10.4 °F -7.7 °F 3.2 °F 73% 30.18 in 6.0 mi NE 18.4 mph - 0.00 in Snow Light Snow
9:49 AM 10.4 °F -8.2 °F 3.2 °F 73% 30.18 in 3.0 mi NNE 19.6 mph - 0.00 in Snow Light Snow
9:53 AM 10.9 °F -7.0 °F 3.9 °F 73% 30.40 in 3.0 mi NNE 18.4 mph - 0.00 in Snow Light Snow
10:53 AM 10.9 °F -7.5 °F 3.9 °F 73% 30.40 in 3.0 mi NE 19.6 mph - 0.00 in Snow Light Snow
10:57 AM 10.4 °F -8.6 °F 3.2 °F 73% 30.18 in 2.5 mi NE 20.7 mph - 0.00 in Snow Light Snow
11:00 AM 10.4 °F -8.2 °F 5.0 °F 79% 30.18 in 1.8 mi NE 19.6 mph - 0.00 in Snow Light Snow
11:16 AM 10.4 °F -7.2 °F 3.2 °F 73% 30.19 in 0.8 mi NE 17.3 mph - 0.00 in Snow Light Snow
11:26 AM 10.4 °F -7.2 °F 3.2 °F 73% 30.19 in 1.0 mi NE 17.3 mph - 0.00 in Snow Light Snow
11:42 AM 10.4 °F -4.1 °F 5.0 °F 79% 30.19 in 0.8 mi NE 11.5 mph - 0.01 in Snow Light Snow
11:53 AM 10.9 °F -4.7 °F 5.0 °F 77% 30.41 in 0.5 mi NE 13.8 mph - 0.01 in Snow Snow
12:21 PM 10.4 °F -6.6 °F 3.2 °F 73% 30.18 in 1.0 mi NE 16.1 mph - 0.01 in Snow Light Snow
12:53 PM 10.9 °F -5.4 °F 5.0 °F 77% 30.40 in 1.0 mi NE 15.0 mph - 0.02 in Snow Light Snow
1:08 PM 10.4 °F -6.0 °F 3.2 °F 73% 30.18 in 0.8 mi NNE 15.0 mph - 0.00 in Snow Light Snow
1:19 PM 10.4 °F -6.0 °F 5.0 °F 79% 30.18 in 0.5 mi NE 15.0 mph - 0.01 in Snow Snow
1:53 PM 10.9 °F -5.9 °F 5.0 °F 77% 30.39 in 0.5 mi NNE 16.1 mph - 0.02 in Snow Snow
2:04 PM 10.4 °F -6.6 °F 5.0 °F 79% 30.17 in 0.2 mi NNE 16.1 mph - 0.01 in Snow Heavy Snow
2:49 PM 10.4 °F -4.1 °F 6.8 °F 85% 30.19 in 0.5 mi ENE 11.5 mph - 0.05 in Snow Snow
2:53 PM 10.9 °F -2.6 °F 6.1 °F 81% 30.42 in 0.5 mi ENE 10.4 mph - 0.05 in Snow Snow
3:09 PM 10.4 °F -3.3 °F 6.8 °F 85% 30.19 in 0.2 mi NE 10.4 mph - 0.02 in Snow Heavy Snow
3:36 PM 10.4 °F -1.5 °F 6.8 °F 85% 30.19 in 0.5 mi NE 8.1 mph - 0.05 in Snow Snow
3:51 PM 10.4 °F -6.6 °F 3.2 °F 73% 30.19 in 1.2 mi NNE 16.1 mph - 0.06 in Snow Light Snow
3:53 PM 10.0 °F -5.9 °F 3.9 °F 76% 30.43 in 1.2 mi NNE 13.8 mph - 0.06 in Snow Light Snow
4:22 PM 10.4 °F -6.0 °F 5.0 °F 79% 30.19 in 0.5 mi NE 15.0 mph - 0.00 in Snow Snow
4:31 PM 10.4 °F -6.6 °F 5.0 °F 79% 30.19 in 0.2 mi NE 16.1 mph - 0.02 in Snow Heavy Snow
4:38 PM 10.4 °F -6.0 °F 5.0 °F 79% 30.19 in 0.2 mi NE 15.0 mph - 0.04 in Snow Heavy Snow
4:53 PM 10.0 °F -4.5 °F 6.1 °F 84% 30.42 in 0.2 mi NE 11.5 mph - 0.07 in Fog , Snow Snow
5:53 PM 10.9 °F -4.1 °F 6.1 °F 81% 30.44 in 0.2 mi NE 12.7 mph - 0.06 in Snow Heavy Snow
6:53 PM 10.9 °F -5.4 °F 6.1 °F 81% 30.45 in 0.2 mi NE 15.0 mph - 0.08 in Snow Heavy Snow
7:27 PM 10.4 °F -3.3 °F 6.8 °F 85% 30.22 in 0.5 mi NE 10.4 mph - 0.04 in Snow Snow
7:37 PM 10.4 °F -0.4 °F 6.8 °F 85% 30.22 in 0.5 mi ENE 6.9 mph - 0.04 in Snow Snow
7:48 PM 10.4 °F -1.5 °F 6.8 °F 85% 30.22 in 1.2 mi ENE 8.1 mph - 0.05 in Snow Light Snow
7:53 PM 10.9 °F 0.2 °F 6.1 °F 81% 30.45 in 0.8 mi ENE 6.9 mph - 0.05 in Snow Light Snow
7:59 PM 10.4 °F -0.4 °F 6.8 °F 85% 30.22 in 1.0 mi ENE 6.9 mph - 0.00 in Snow Light Snow
8:32 PM 10.4 °F -0.4 °F 6.8 °F 85% 30.23 in 1.0 mi NE 6.9 mph - 0.01 in Snow Light Snow
8:44 PM 10.4 °F -0.4 °F 6.8 °F 85% 30.23 in 0.8 mi NE 6.9 mph - 0.01 in Snow Light Snow
8:53 PM 10.9 °F 0.2 °F 7.0 °F 84% 30.46 in 0.8 mi NE 6.9 mph - 0.02 in Snow Light Snow
9:22 PM 10.4 °F 2.2 °F 6.8 °F 85% 30.23 in 1.5 mi ENE 4.6 mph - 0.01 in Snow Light Snow
9:28 PM 10.4 °F 4.0 °F 6.8 °F 85% 30.23 in 2.0 mi ENE 3.5 mph - 0.01 in Snow Light Snow
9:53 PM 10.9 °F - 7.0 °F 84% 30.46 in 1.2 mi Calm Calm - 0.01 in Snow Light Snow
10:15 PM 10.4 °F - 6.8 °F 85% 30.22 in 0.8 mi Calm Calm - 0.01 in Snow Light Snow
10:33 PM 10.4 °F - 6.8 °F 85% 30.21 in 1.0 mi Calm Calm - 0.01 in Snow Light Snow
10:53 PM 9.0 °F - 6.1 °F 88% 30.44 in 1.2 mi Calm Calm - 0.01 in Snow Light Snow
11:44 PM 8.6 °F 0.1 °F 3.2 °F 79% 30.19 in 2.0 mi West 4.6 mph - 0.01 in Snow Light Snow
11:53 PM 7.0 °F -3.3 °F 3.0 °F 84% 30.43 in 2.5 mi West 5.8 mph - 0.01 in Snow Light Snow